Tracking 29892 objects as of 21-Nov-2024
HD Live streaming from Space Station
objects crossing your sky now

ONEWEB-0663

Track ONEWEB-0663 now!
10-day predictions
ONEWEB-0663 is classified as:


NORAD ID: 55823
Int'l Code: 2023-029AD
Perigee: 1,187.2 km
Apogee: 1,190.3 km
Inclination: 87.9 °
Period: 109.0 minutes
Semi major axis: 7559 km
RCS: Unknown
Launch date: March 9, 2023
Source: United Kingdom (UK)
Launch site: AIR FORCE EASTERN TEST RANGE (AFETR)
Your satellite tracking list
Your tracking list is empty




NASA's NSSDC Master Catalog

Two Line Element Set (TLE):
1 55823U 23029AD  24325.18468893  .00000044  00000-0  76750-4 0  9999
2 55823  87.9286  28.6671 0002015  87.5356 272.6008 13.20813714 85375
Source of the keplerian elements: AFSPC